User: anonymous   Login
Location: Losili
(4.4086°N, 32.7049°E)
Time: 04:00:28
(UTC+00:00)
Language:

USA 267 - Orbit

View from above orbital plane
View from above orbital plane
View from above satellite
View from above satellite

Ground track
Ground track

The orbit data is extracted from the following two-line orbital elements,

1 41334U 16010A   19305.16496765 0.00000000  00000-0  00000-0 0    08
2 41334 123.0014 255.9369 0003639  66.2062 293.7938 13.41430411    03
Epoch (UTC): 01 November 2019 03:57:33
Eccentricity: 0.0003639
inclination: 123.0014°
perigee height: 1101 km
apogee height: 1106 km
right ascension of ascending node: 255.9369°
argument of perigee: 66.2062°
revolutions per day: 13.41430411
mean anomaly at epoch: 293.7938°
orbit number at epoch: 0

The dashed part of the orbit path shows where the satellite is in the earth's shadow,  

DLR